User: anonymous   Login
Location: Dover
(39.1580°N, 75.5250°W)
Time: 14:31:25
(UTC-04:00)
Language:

SeaSat 1 - Orbit

View from above orbital plane
View from above orbital plane
View from above satellite
View from above satellite

Ground track
Ground track

The orbit data is extracted from the following two-line orbital elements,

1 10967U 78064A   17207.48206414 -.00000072 +00000-0 +19180-4 0  9997
2 10967 108.0158 021.5522 0001367 237.8957 122.2054 14.43654652052040
Epoch (UTC): 26 July 2017 11:34:10
Eccentricity: 0.0001367
inclination: 108.0158°
perigee height: 745 km
apogee height: 747 km
right ascension of ascending node: 21.5522°
argument of perigee: 237.8957°
revolutions per day: 14.43654652
mean anomaly at epoch: 122.2054°
orbit number at epoch: 5204

The dashed part of the orbit path shows where the satellite is in the earth's shadow,  

DLR